Hourly Data Report for October 07, 2013

All times are specified in Local Standard Time (LST). Add 1 hour to adjust for Daylight Saving Time where and when it is observed.

GRISE FIORD CLIMATE
NUNAVUT

76°25'22.040" N
82°54'08.020" W
44.50 m
2402351
71971
NGC

Download Data

Hourly Data (October 2013)
Hourly Data Report for October 7, 2013
Temp Definition
°C
Dew Point Temp Definition
°C
Rel Hum Definition
%
Wind Dir Definition
10's deg

Wind Spd Definition
km/h
Visibility Definition
km
Stn Press Definition
kPa
Hmdx Definition


Wind Chill Definition


Weather Definition


TIME
00:00 -10.7 -14.5 74 6 6   101.79   -14 LegendNANA
01:00 -11.4 -15.1 74 6 6   101.79   -15 LegendNANA
02:00 -11.8 -16.9 66 5 11   101.80   -18 LegendNANA
03:00 -11.7 -15.8 72 5 20   101.81   -20 LegendNANA
04:00 -11.6 -14.8 77 5 13   101.82   -18 LegendNANA
05:00 -12.7 -15.3 81 9 6   101.84   -17 LegendNANA
06:00 -12.9 -15.1 84 10 4   101.84   -16 LegendNANA
07:00 -12.1 -14.4 83 13 6   101.84   -16 LegendNANA
08:00 -11.8 -14.2 82 13 2   101.83   -13 LegendNANA
09:00 -11.6 -13.9 83 10 2   101.85   -13 LegendNANA
10:00 -11.1 -13.8 80 14 2   101.84   -12 LegendNANA
11:00 -10.6 -13.5 79 5 4   101.83   -13 LegendNANA
12:00 -10.3 -13.4 78 1 4   101.84   -13 LegendNANA
13:00 -10.1 -13.5 76 6 4   101.85   -12 LegendNANA
14:00 -10.0 -14.6 69 7 6   101.86   -14 LegendNANA
15:00 -10.2 -15.0 68 7 9   101.88   -15 LegendNANA
16:00 -10.5 -15.8 65 4 11   101.90   -16 LegendNANA
17:00 -11.2 -17.0 62 5 13   101.91   -18 LegendNANA
18:00 -11.4 -17.3 62 5 17   101.91   -19 LegendNANA
19:00 -12.0 -17.7 63 5 22   101.91   -21 LegendNANA
20:00 -12.4 -17.8 64 5 20   101.90   -21 LegendNANA
21:00 -11.1 -16.7 63 5 4   101.91   -14 LegendNANA
22:00 -11.8 -17.7 62 4 4   101.93   -14 LegendNANA
23:00 -11.3 -17.2 62 4 9   101.94   -16 LegendNANA

Notes on Data Quality.

Legend

  • E = Estimated
  • M = Missing
  • NA = Not Available
  • ‡ = Partner data that is not subject to review by the National Climate Archives
Date modified: